STARLINK-31807, 59639

Orbit data source: Space-Track

STARLINK-31807, 59639 is a payload satellite owned by SpaceX/Seattle (US) in LEO that was launched on Fri, 03 May 2024 UTC via an FALCON 9 launch vehicle from the Air Force Eastern Test Range (AFETR). Payload-class satellites include a variety of spacecraft equipped with specific instruments for various scientific and technological missions. These include communications satellites like Starlink; space stations such as the ISS; scientific satellites like the Hubble; Earth observation satellites from companies like Planet Labs, Umbra, and HawkEye 360; GPS; miniature CubeSats for education and research; and military/defense satellites.

Loading next visibility...
Identifier
59639, 2024-082J
Orbit
LEO
Country
Flag of USUS
Related business
Manufacturer
SpaceX/Seattle
Mission
Operational Commercial Communications
Bus & Motor
STARLINK V2M, Unknown motor
Mass
730 kg wet, ~700 kg dry
Launch date (UTC)
2024-05-03 (2 years ago)
Launch vehicle
FALCON 9
Launch site
Air Force Eastern Test Range (AFETR)
Object type
Payload
Rocket body
Debris
Shape & HBR
Box + 2 Pan, 17.7 m
Radar Cross Section
33.884 m², Large (>1 m²)

Expand to show TLE details & history
Last TLE update: 2 days ago

TLE from 2 days ago
0 STARLINK-31807
1 59639U 24082J   26171.31431490 -.00003926  00000-0 -13317-3 0  9990
2 59639  43.0002 280.5330 0001531 265.9543  94.1134 15.27595499120504
Epoch: 2026-06-20T07:32Z
TLE epoch observation values (Epoch: 2026-06-20T07:32:36.807Z)
Latitude
0.00001°
Longitude
-101.15107°
Altitude
482.854 km
Speed
7.626 km/s
True Right ascension
18h 42m 07s
True Declination
0° 00' 00"
Sunlit
Object was in full shadow at epoch
Visualization orbit readout
Latitude
Unknown
Longitude
Unknown
Altitude
Unknown
Speed
Unknown
Apparent Right ascension
Unknown
Apparent Declination
Unknown
Sunlit
N/A
Visualization observer readout
Local Sidereal Time
21:23:47
Azimuth
Unknown
Elevation
Unknown
Doppler factor
Unknown
Orbital elements
Apogee altitude
485.999 km
Perigee altitude
483.897 km
Semi-major axis
6,863.085 km
Eccentricity
0.00015
Inclination
43.0002°
RAAN
280.533°
Arg. of periapsis
265.9543°
True anomaly
94.1309°
Mean anomaly
94.1134°
Eccentric anomaly
94.12215°
Mean motion
3.81737 °/min
Orbital period
94.31 mins
BSTAR
-0.00013317
Loading maneuver chart data...
Computing Atmospheric mass density...
Loading historical data...
Loading historical data...
Loading historical data...
Loading historical data...
Loading historical data...
Loading historical data...
Loading historical data...

Documentation

Showing up to 5 results
|